This is the latest recevied weather packets stored in our database for station/object KR4ELZ. If no packets are shown the sender has not sent any weather packets the latest 10 day(s).
| Time | Temp. | Humidity | Pressure | Rain* | Wind** | Luminosity | Snow |
|---|---|---|---|---|---|---|---|
| 1777124073 | 16.67° C | 99% | 1010 hPa | 0 mm | - | 117 W/m² | - |
| 1777123770 | 16.67° C | 99% | 1009.8 hPa | 0 mm | - | 93 W/m² | - |
| 1777123467 | 16.67° C | 99% | 1009.7 hPa | 0 mm | - | 95 W/m² | - |
| 1777123161 | 16.67° C | 99% | 1009.8 hPa | 0 mm | - | 71 W/m² | - |
| 1777122859 | 16.11° C | 99% | 1009.7 hPa | 0 mm | - | 73 W/m² | - |
| 1777122555 | 15.56° C | 99% | 1010.1 hPa | 0 mm | - | 81 W/m² | - |
| 1777122251 | 16.11° C | 99% | 1009.9 hPa | 0 mm | - | 82 W/m² | - |
| 1777121947 | 15.56° C | 99% | 1009.8 hPa | 0 mm | - | 78 W/m² | - |
| 1777121644 | 15.56° C | 99% | 1009.9 hPa | 0 mm | - | 67 W/m² | - |
| 1777121340 | 15.56° C | 99% | 1009.8 hPa | 0 mm | - | 83 W/m² | - |
| 1777121037 | 15.56° C | 99% | 1009.8 hPa | 0 mm | - | 39 W/m² | - |
| 1777120732 | 15.56° C | 99% | 1009.6 hPa | 0 mm | - | 33 W/m² | - |
| 1777120429 | 15.56° C | 99% | 1009.6 hPa | 0 mm | - | 31 W/m² | - |
| 1777120124 | 15° C | 99% | 1009.9 hPa | 0 mm | - | 33 W/m² | - |
| 1777119820 | 15° C | 99% | 1009.9 hPa | 0 mm | - | 32 W/m² | - |
| 1777119516 | 15° C | 99% | 1009.8 hPa | 0 mm | - | 29 W/m² | - |
| 1777119212 | 15° C | 99% | 1009.8 hPa | 0 mm | - | 24 W/m² | - |
| 1777118912 | 15° C | 99% | 1009.7 hPa | 0 mm | - | 22 W/m² | - |
| 1777118608 | 15° C | 99% | 1009.5 hPa | 0 mm | - | 23 W/m² | - |
| 1777118308 | 15° C | 99% | 1009.5 hPa | 0 mm | - | 23 W/m² | - |
| 1777118005 | 14.44° C | 99% | 1009.3 hPa | 0 mm | - | 19 W/m² | - |
| 1777117702 | 14.44° C | 99% | 1009.1 hPa | 0 mm | - | 17 W/m² | - |
| 1777117400 | 14.44° C | 99% | 1009.2 hPa | 0 mm | - | 16 W/m² | - |
| 1777117095 | 14.44° C | 99% | 1009.1 hPa | 0 mm | - | 14 W/m² | - |
| 1777116791 | 14.44° C | 99% | 1008.9 hPa | 0 mm | - | 12 W/m² | - |
* Rain latest hour (hover to see other rain measurements)
** Current wind speed in m/s (hover to see current wind gust speed)